Regional Weather Roundup
Issued by NWS

Home | Current Version | Previous Version | Graphics & Text | Print | Product List | Glossary On
Versions: 1 2 3 4 5 6 7 8 9 10 11 12 13 14 15 16 17 18 19 20 21 22 23 24 25 26 27 28 29 30 31 32 33 34 35 36 37 38 39 40 41 42 43 44 45 46 47 48 49 50
000
ASUS43 KIND 180459
RWRIN

WEATHER ROUNDUP FOR INDIANA
NATIONAL WEATHER SERVICE INDIANAPOLIS IN
1200 AM EST THU JAN 18 2018

NOTE: "FAIR" INDICATES FEW OR NO CLOUDS BELOW 12,000 FEET WITH NO
SIGNIFICANT WEATHER AND/OR OBSTRUCTIONS TO VISIBILITY.

* - STATION DOES NOT REPORT WEATHER SUCH AS PRECIPITATION OR FOG.

+ - STATION NOT QUALITY CONTROLLED BY THE NATIONAL WEATHER SERVICE.
    USE DATA WITH CAUTION...ESPECIALLY DEWPOINT AND RELATIVE
    HUMIDITY OBSERVATIONS.

INZ001>003-010>013-019-020-180600-
NORTHWEST INDIANA

CITY           SKY/WX    TMP DP  RH WIND       PRES   REMARKS
KNOX *+        FAIR      16  10  79 SW15      30.29F WCI   1
MONTICELLO +   FAIR      14   7  76 SW15      30.34F WCI  -2

$$

LMZ046-743>745-180600-
SOUTHERN LAKE MICHIGAN

STATION/POSITION TIME  TEMP    WIND        PRES    WAVE
                       AIR SEA DIR/SP/G            HT
                 (UTC) (F)     (DEG/KT/KT) (MB)    (FT)
BURNS HARBOR     0430   17     230/ 17/ 23 1025.1F
MICHIGAN CITY    0430   17     210/ 23/ 26   N/A

$$

INZ004-005-014>016-021>024-180600-
NORTH CENTRAL INDIANA

CITY           SKY/WX    TMP DP  RH WIND       PRES   REMARKS
GOSHEN         FAIR      14   8  77 SW16G30   30.25F WCI  -2
PERU/GRISSOM   FAIR      11   8  85 SW14      30.32F WCI  -4
SOUTH BEND     FAIR      14   9  80 SW16G29   30.24F WCI  -2

$$

INZ006>009-017-018-025>027-180600-
NORTHEAST INDIANA

CITY           SKY/WX    TMP DP  RH WIND       PRES   REMARKS
FORT WAYNE     FAIR      14   8  77 SW16      30.30F WCI  -2
KENDALLVILLE + FAIR      13   8  78 SW17G24   30.23F WCI  -4

$$

INZ028-029-035-036-043>045-051>053-180600-
WEST CENTRAL INDIANA

CITY           SKY/WX    TMP DP  RH WIND       PRES   REMARKS
LAFAYETTE      FAIR      13   8  81 SW9G18    30.36F WCI   1
TERRE HAUTE    FAIR       9   4  80 SW7       30.44F WCI  -2

$$

INZ030>032-037>040-046>048-054>057-064-065-180600-
CENTRAL INDIANA

CITY           SKY/WX    TMP DP  RH WIND       PRES   REMARKS
GREENWOOD *+   FAIR      12   6  76 SW9       30.41F WCI   0
INDIANAPOLIS   FAIR      11   5  77 SW15      30.40F WCI  -5
-EAGLE CREEK   FAIR      10   4  76 SW7       30.39F WCI  -1
MT COMFORT *+  FAIR      10   7  85 SW9       30.39F WCI  -2
SHELBYVILLE    FAIR       9   2  73 SW9       30.41F WCI  -4

$$

INZ033-034-041-042-049-050-058-059-180600-
EAST CENTRAL INDIANA

CITY           SKY/WX    TMP DP  RH WIND       PRES   REMARKS
MUNCIE         FAIR      13   5  70 SW12G20   30.35F WCI  -1
RICHMOND +     FAIR      12   9  85 SW14      30.37F WCI  -3

$$

INZ060-061-067>069-081>083-085>088-180600-
SOUTHWEST INDIANA

CITY           SKY/WX    TMP DP  RH WIND       PRES   REMARKS
EVANSVILLE     FAIR       9   7  92 SW5       30.54F WCI   1
HUNTINGBURG +  FAIR       5   2  87 S5        30.52F WCI  -4

$$

INZ062-063-066-070>080-084-089>092-180600-
SOUTH CENTRAL AND SOUTHEAST INDIANA

CITY           SKY/WX    TMP DP  RH WIND       PRES   REMARKS
BLOOMINGTON    FAIR      10   4  76 SW10      30.43F WCI  -4
FRENCH LICK *+ FAIR       9   5  85 CALM      30.47F
MADISON *+     FAIR      12   5  73 S3        30.47F
SEYMOUR +      FAIR      12   5  73 SW8       30.47F WCI   1

$$




USA.gov is the U.S. government's official web portal to all federal, state and local government web resources and services.